Regional Weather Roundup
Issued by NWS

Home | Current Version | Previous Version | Text Only | Print | Product List | Glossary Off
Versions: 1 2 3 4 5 6 7 8 9 10 11 12 13 14 15 16 17 18 19 20 21 22 23 24 25 26 27 28 29 30 31 32 33 34 35 36 37 38 39 40 41 42 43 44 45 46 47 48 49 50

000
ASUS43 KOAX 181010
RWRNE

WEATHER ROUNDUP FOR NEBRASKA
NATIONAL WEATHER SERVICE OMAHA NE
500 AM CDT THU SEP 18 2014

NOTES: SATELLITE DATA IS BEING USED TO AUGMENT CLOUD COVER ABOVE
       12000 FEET.
       "FAIR" INDICATES FEW OR NO CLOUDS BELOW 12,000 FEET WITH NO
       SIGNIFICANT WEATHER AND/OR OBSTRUCTIONS TO VISIBILITY.

  * THESE STATIONS DO NOT REPORT WEATHER SUCH AS RAIN...SNOW OR FOG.

NEZ001>004-019>022-054>056-181100-
NEBRASKA PANHANDLE

CITY           SKY/WX    TMP DP  RH WIND       PRES   REMARKS
SCOTTSBLUFF    CLEAR     53  52  96 E9        29.95F
ALLIANCE       CLOUDY    62  61  96 S9        29.96S FOG
CHADRON        CLEAR     49  47  93 SW5       29.91F
KIMBALL        CLEAR     49  42  77 W5        29.99F
SIDNEY         FOG       57  56  96 S6        29.99F VSB 1
$$

NEZ057>060-069>072-079>082-181100-
SOUTHWEST NEBRASKA

CITY           SKY/WX    TMP DP  RH WIND       PRES   REMARKS
NORTH PLATTE   FOG       58  57  97 E7        29.96S VSB 1/4
IMPERIAL       FOG       65  64  97 SE6       29.96S VSB 1/2
LEXINGTON      FOG       62  61  97 SE9       29.97S VSB 1/4
MCCOOK         CLOUDY    63  62  97 E8        29.95R FOG
OGALLALA       CLOUDY    63  62  97 E6        29.96S FOG
$$

NEZ005>010-023>029-035>040-094-181100-
NORTH CENTRAL NEBRASKA

CITY           SKY/WX    TMP DP  RH WIND       PRES   REMARKS
VALENTINE      PTCLDY    60  59  96 S8        29.94S
AINSWORTH      PTCLDY    59  58  97 S12       29.95S
BROKEN BOW     FOG       60  59  96 CALM      29.97S VSB 1/4
O`NEILL        PTCLDY    61  60  96 SE5       29.96R
ORD            FOG       52  51  97 CALM      29.96F VSB 1/4
THEDFORD       CLOUDY    58  57  98 S3        29.98S VSB 1/4
$$

NEZ041-046>049-061>064-073>077-083>087-181100-
SOUTH CENTRAL NEBRASKA

CITY           SKY/WX    TMP DP  RH WIND       PRES   REMARKS
GRAND ISLAND   FOG       60  59  96 SE6       29.98R VSB 1/4
AURORA         FOG       58  58 100 CALM      29.98R VSB<1/4
HASTINGS       FOG       61  59  93 SE9       29.96S VSB 1/2
HEBRON         CLOUDY    63  61  94 E7        29.95F FOG
HOLDREGE       CLOUDY    61  60  96 E12       29.96S FOG
KEARNEY *      CLOUDY    61  61 100 E12       29.97S VSB 3/4
YORK           CLOUDY    59  59 100 SE5       29.98R FOG
$$

NEZ011>018-030>034-042>045-181100-
NORTHEAST NEBRASKA

CITY           SKY/WX    TMP DP  RH WIND       PRES   REMARKS
NORFOLK        MOCLDY    61  59  93 SE5       29.96F
ALBION         PTCLDY    54  52  94 CALM      29.98S FOG
BLAIR          CLEAR     60  58  92 S3        29.98S
COLUMBUS *     CLEAR     55  54  94 E5        29.99R VSB 1
FREMONT        PTCLDY    62  60  92 SE6       29.99R
TEKAMAH        PTCLDY    54  52  93 SE3       29.98R
WAYNE          PTCLDY    57  56  96 S3        29.98S
$$

NEZ050>053-065>068-078-088>093-181100-
SOUTHEAST NEBRASKA

CITY           SKY/WX    TMP DP  RH WIND       PRES   REMARKS
LINCOLN        CLOUDY    63  60  90 S6        29.99R
OMAHA EPPLEY   PTCLDY    60  57  89 SE7       29.99R
BEATRICE       FOG       62  61  99 E5        29.97S VSB 1
FALLS CITY     CLOUDY    63  63 100 E7        29.98R FOG
NEBRASKA CITY  FOG       62  60  94 SE6       29.99S VSB 1/2
PLATTSMOUTH    CLEAR     59  57  94 SE5       30.00R FOG
$$

NEZ044-045-051>053-067-181100-
OMAHA AREA

CITY           SKY/WX    TMP DP  RH WIND       PRES   REMARKS
OMAHA EPPLEY   PTCLDY    60  57  89 SE7       29.99R
BLAIR          CLEAR     60  58  92 S3        29.98S
FREMONT        PTCLDY    62  60  92 SE6       29.99R
MILLARD        CLEAR     60  59  95 CALM      29.98S
OFFUTT AFB     CLEAR     57  57 100 E5        29.99R
PLATTSMOUTH    CLEAR     59  57  94 SE5       30.00R FOG
WAHOO          FAIR      57  55  92 CALM      29.98S FOG
$$


USA.gov is the U.S. government's official web portal to all federal, state and local government web resources and services.